| time (UTC) | temp F | wind direction | speed MPH | gust MPH | rain 1hr in | rain 24hr in | rain mn in | humidity % | barometer mb |
| 20260903222445 | 48 | 0.0 | 0.0 | 0.00 | 0.02 | 0.00 | 98 | 1002.6 | |
| 20260903220444 | 47 | 0.0 | 0.0 | 0.00 | 0.02 | 0.00 | 99 | 1002.7 | |
| 20260903214444 | 47 | 0.0 | 0.0 | 0.00 | 0.02 | 0.00 | 98 | 1002.8 | |
| 20260903212445 | 47 | 0.0 | 0.0 | 0.00 | 0.02 | 0.00 | 98 | 1002.9 | |
| 20260903204446 | 48 | 0.0 | 0.0 | 0.00 | 0.02 | 0.02 | 97 | 1003.0 | |
| 20260903200445 | 48 | 0.0 | 0.0 | 0.00 | 0.02 | 0.02 | 97 | 1003.1 | |
| 20260903194444 | 49 | 0.0 | 0.0 | 0.00 | 0.02 | 0.02 | 96 | 1003.1 | |
| 20260903192443 | 50 | 0.0 | 0.0 | 0.00 | 0.02 | 0.02 | 93 | 1003.3 | |
| 20260903190114 | 51 | 0.0 | 0.0 | 0.00 | 0.02 | 0.02 | 89 | 1003.3 | |
| 20260903184444 | 53 | 0.0 | 0.0 | 0.00 | 0.02 | 0.02 | 85 | 1003.3 | |
| 20260903182444 | 54 | 0.0 | 0.0 | 0.00 | 0.02 | 0.02 | 82 | 1003.3 | |
| 20260903180444 | 55 | 0.0 | 0.0 | 0.00 | 0.02 | 0.02 | 81 | 1003.3 | |
| 20260903174442 | 56 | 0.0 | 0.0 | 0.00 | 0.02 | 0.02 | 84 | 1003.1 | |
| 20260903172443 | 57 | 0.0 | 0.0 | 0.00 | 0.02 | 0.02 | 73 | 1002.9 | |
| 20260903170443 | 57 | 0.0 | 0.0 | 0.00 | 0.02 | 0.02 | 89 | 1002.9 | |
| 20260903164442 | 58 | 0.0 | 0.0 | 0.02 | 0.02 | 0.02 | 89 | 1002.7 | |
| 20260903162444 | 58 | 0.0 | 0.0 | 0.02 | 0.02 | 0.02 | 87 | 1002.7 | |
| 20260903160113 | 58 | 0.0 | 0.0 | 0.00 | 0.01 | 0.01 | 81 | 1002.6 | |
| 20260903154441 | 58 | 0.0 | 0.0 | 0.00 | 0.01 | 0.01 | 81 | 1002.7 | |
| 20260903152442 | 60 | 0.0 | 0.0 | 0.00 | 0.01 | 0.01 | 66 | 1002.7 | |
| 20260903150443 | 61 | 0.0 | 0.0 | 0.00 | 0.01 | 0.01 | 60 | 1002.8 | |
| 20260903144443 | 62 | 0.0 | 0.0 | 0.00 | 0.01 | 0.01 | 56 | 1002.6 | |
| 20260903142443 | 63 | 0.0 | 0.0 | 0.00 | 0.01 | 0.01 | 59 | 1002.5 | |
| 20260903140442 | 63 | 0.0 | 0.0 | 0.00 | 0.01 | 0.01 | 61 | 1002.5 | |
| 20260903134442 | 63 | 0.0 | 0.0 | 0.00 | 0.01 | 0.01 | 67 | 1002.6 | |
| 20260903132443 | 61 | 0.0 | 0.0 | 0.00 | 0.01 | 0.01 | 70 | 1002.8 | |
| 20260903130442 | 60 | 0.0 | 0.0 | 0.00 | 0.01 | 0.01 | 70 | 1003.0 | |
| 20260903124443 | 60 | 0.0 | 0.0 | 0.00 | 0.01 | 0.01 | 65 | 1003.2 | |
| 20260903122442 | 63 | 0.0 | 0.0 | 0.00 | 0.01 | 0.01 | 57 | 1002.9 | |
| 20260903120443 | 66 | 0.0 | 0.0 | 0.00 | 0.01 | 0.01 | 51 | 1002.7 | |
| 20260903114442 | 66 | 0.0 | 0.0 | 0.00 | 0.01 | 0.01 | 52 | 1002.8 | |
| 20260903112442 | 65 | 0.0 | 0.0 | 0.00 | 0.01 | 0.01 | 57 | 1002.8 | |
| 20260903110443 | 65 | 0.0 | 0.0 | 0.00 | 0.01 | 0.01 | 64 | 1002.9 | |
| 20260903104442 | 63 | 0.0 | 0.0 | 0.00 | 0.00 | 0.00 | 69 | 1003.3 | |
| 20260903102111 | 63 | 0.0 | 0.0 | 0.00 | 0.00 | 0.00 | 60 | 1003.3 | |
| 20260903100442 | 65 | 0.0 | 0.0 | 0.00 | 0.00 | 0.00 | 58 | 1003.3 | |
| 20260903090441 | 61 | 0.0 | 0.0 | 0.00 | 0.00 | 0.00 | 69 | 1003.7 | |
| 20260903074441 | 60 | 0.0 | 0.0 | 0.00 | 0.00 | 0.00 | 77 | 1003.7 | |
| 20260903072440 | 59 | 0.0 | 0.0 | 0.00 | 0.00 | 0.00 | 79 | 1003.7 | |
| 20260903070440 | 59 | 0.0 | 0.0 | 0.00 | 0.00 | 0.00 | 81 | 1003.8 | |
| 20260903064441 | 59 | 0.0 | 0.0 | 0.00 | 0.00 | 0.00 | 82 | 1003.8 | |
| 20260903062439 | 58 | 0.0 | 0.0 | 0.00 | 0.00 | 0.00 | 82 | 1003.8 | |
| 20260903054440 | 58 | 0.0 | 0.0 | 0.00 | 0.00 | 0.00 | 87 | 1004.0 | |
| 20260903052440 | 57 | 0.0 | 0.0 | 0.00 | 0.00 | 0.00 | 90 | 1004.1 | |
| 20260903050440 | 56 | 0.0 | 0.0 | 0.00 | 0.00 | 0.00 | 95 | 1004.2 | |
| 20260903044440 | 55 | 0.0 | 0.0 | 0.00 | 0.00 | 0.00 | 98 | 1004.2 | |
| 20260903042441 | 54 | 0.0 | 0.0 | 0.00 | 0.00 | 0.00 | 99 | 1004.1 | |
| 20260903040440 | 54 | 0.0 | 0.0 | 0.00 | 0.00 | 0.00 | 99 | 1004.2 | |
| 20260903032111 | 55 | 0.0 | 0.0 | 0.00 | 0.00 | 0.00 | 98 | 1004.3 | |
| 20260903030439 | 55 | 0.0 | 0.0 | 0.00 | 0.00 | 0.00 | 98 | 1004.2 | |
| 20260903024439 | 56 | 0.0 | 0.0 | 0.00 | 0.00 | 0.00 | 96 | 1004.3 | |
| 20260903022441 | 56 | 0.0 | 0.0 | 0.00 | 0.00 | 0.00 | 97 | 1004.4 | |
| 20260903020441 | 56 | 0.0 | 0.0 | 0.00 | 0.00 | 0.00 | 95 | 1004.5 | |
| 20260903014441 | 57 | 0.0 | 0.0 | 0.00 | 0.00 | 0.00 | 95 | 1004.5 | |
| 20260903012440 | 57 | 0.0 | 0.0 | 0.00 | 0.00 | 0.00 | 97 | 1004.7 | |
| 20260903002441 | 57 | 0.0 | 0.0 | 0.00 | 0.00 | 0.00 | 95 | 1005.0 | |
| 20260903000440 | 57 | 0.0 | 0.0 | 0.00 | 0.00 | 0.00 | 96 | 1005.2 | |
| 20260902234442 | 56 | 0.0 | 0.0 | 0.00 | 0.00 | 0.00 | 97 | 1005.3 | |
| 20260902232440 | 55 | 0.0 | 0.0 | 0.00 | 0.00 | 0.00 | 99 | 1005.2 | |
| 20260902230441 | 53 | 0.0 | 0.0 | 0.00 | 0.00 | 0.00 | 98 | 1005.4 | |
| 20260902224442 | 52 | 0.0 | 0.0 | 0.00 | 0.00 | 0.00 | 98 | 1005.5 |